| time (UTC) | temp C | wind direction | speed KPH | gust KPH | rain 1hr cm | rain 24hr cm | rain mn cm | humidity % | barometer mb |
| 20260902022005 | 20 | 245 | 4.8 | 9.7 | 0.00 | 0.00 | 0.00 | 71 | 1012.4 |
| 20260902021458 | 20 | 277 | 4.8 | 6.4 | 0.00 | 0.00 | 0.00 | 71 | 1012.4 |
| 20260902020951 | 21 | 266 | 3.2 | 12.9 | 0.00 | 0.00 | 0.00 | 71 | 1012.4 |
| 20260902020445 | 21 | 244 | 8.0 | 12.9 | 0.00 | 0.00 | 0.00 | 71 | 1012.4 |
| 20260902015938 | 21 | 230 | 6.4 | 9.7 | 0.00 | 0.00 | 0.00 | 71 | 1012.4 |
| 20260902015432 | 21 | 239 | 6.4 | 11.3 | 0.00 | 0.00 | 0.00 | 70 | 1012.4 |
| 20260902014926 | 21 | 200 | 4.8 | 11.3 | 0.00 | 0.00 | 0.00 | 71 | 1012.4 |
| 20260902014419 | 21 | 241 | 6.4 | 11.3 | 0.00 | 0.00 | 0.00 | 70 | 1012.4 |
| 20260902013913 | 21 | 245 | 4.8 | 14.5 | 0.00 | 0.00 | 0.00 | 70 | 1012.8 |
| 20260902012900 | 21 | 270 | 3.2 | 16.1 | 0.00 | 0.00 | 0.00 | 71 | 1012.4 |
| 20260902012355 | 21 | 199 | 8.0 | 16.1 | 0.00 | 0.00 | 0.00 | 71 | 1012.8 |
| 20260902011341 | 22 | 255 | 9.7 | 12.9 | 0.00 | 0.00 | 0.00 | 71 | 1012.4 |
| 20260902010833 | 22 | 216 | 8.0 | 12.9 | 0.00 | 0.00 | 0.00 | 70 | 1012.4 |
| 20260902010327 | 21 | 258 | 6.4 | 14.5 | 0.00 | 0.00 | 0.00 | 71 | 1012.8 |
| 20260902005821 | 22 | 258 | 9.7 | 14.5 | 0.00 | 0.00 | 0.00 | 71 | 1012.8 |
| 20260902005314 | 22 | 208 | 9.7 | 14.5 | 0.00 | 0.00 | 0.00 | 70 | 1012.8 |
| 20260902003755 | 22 | 243 | 11.3 | 17.7 | 0.00 | 0.00 | 0.00 | 69 | 1012.8 |
| 20260902002741 | 22 | 224 | 6.4 | 20.9 | 0.00 | 0.00 | 0.00 | 71 | 1012.8 |
| 20260902002235 | 22 | 231 | 11.3 | 20.9 | 0.00 | 0.00 | 0.00 | 69 | 1012.8 |
| 20260902001729 | 22 | 234 | 11.3 | 20.9 | 0.00 | 0.00 | 0.00 | 70 | 1012.8 |
| 20260902001222 | 22 | 248 | 9.7 | 16.1 | 0.00 | 0.00 | 0.00 | 69 | 1012.8 |
| 20260901235702 | 22 | 247 | 9.7 | 22.5 | 0.00 | 0.00 | 0.00 | 71 | 1012.8 |
| 20260901235156 | 22 | 226 | 17.7 | 22.5 | 0.00 | 0.00 | 0.00 | 71 | 1013.1 |
| 20260901234649 | 22 | 267 | 9.7 | 20.9 | 0.00 | 0.00 | 0.00 | 71 | 1013.1 |
| 20260901234142 | 22 | 274 | 6.4 | 20.9 | 0.00 | 0.00 | 0.00 | 71 | 1013.1 |
| 20260901233636 | 22 | 227 | 8.0 | 20.9 | 0.00 | 0.00 | 0.00 | 71 | 1013.1 |
| 20260901233130 | 22 | 226 | 16.1 | 20.9 | 0.00 | 0.00 | 0.00 | 68 | 1013.1 |
| 20260901231610 | 22 | 230 | 19.3 | 22.5 | 0.00 | 0.00 | 0.00 | 69 | 1013.1 |
| 20260901231103 | 22 | 276 | 3.2 | 22.5 | 0.00 | 0.00 | 0.00 | 72 | 1013.1 |
| 20260901230558 | 22 | 204 | 9.7 | 25.7 | 0.00 | 0.00 | 0.00 | 71 | 1013.1 |
| 20260901230050 | 22 | 268 | 12.9 | 25.7 | 0.00 | 0.00 | 0.00 | 71 | 1013.4 |
| 20260901225038 | 22 | 260 | 9.7 | 22.5 | 0.00 | 0.00 | 0.00 | 71 | 1013.4 |
| 20260901224530 | 22 | 257 | 17.7 | 22.5 | 0.00 | 0.00 | 0.00 | 70 | 1013.4 |
| 20260901224024 | 22 | 235 | 12.9 | 25.7 | 0.00 | 0.00 | 0.00 | 71 | 1013.4 |
| 20260901223518 | 22 | 210 | 14.5 | 25.7 | 0.00 | 0.00 | 0.00 | 72 | 1013.4 |
| 20260901223011 | 22 | 225 | 16.1 | 22.5 | 0.00 | 0.00 | 0.00 | 71 | 1013.4 |
| 20260901222504 | 22 | 230 | 11.3 | 24.1 | 0.00 | 0.00 | 0.00 | 70 | 1013.4 |
| 20260901221958 | 23 | 251 | 12.9 | 25.7 | 0.00 | 0.00 | 0.00 | 70 | 1013.4 |
| 20260901221452 | 23 | 237 | 12.9 | 25.7 | 0.00 | 0.00 | 0.00 | 69 | 1013.4 |
| 20260901220945 | 23 | 226 | 17.7 | 25.7 | 0.00 | 0.00 | 0.00 | 69 | 1013.4 |
| 20260901215931 | 23 | 217 | 17.7 | 22.5 | 0.00 | 0.00 | 0.00 | 68 | 1013.4 |
| 20260901215425 | 23 | 222 | 17.7 | 22.5 | 0.00 | 0.00 | 0.00 | 68 | 1013.8 |
| 20260901214919 | 23 | 274 | 9.7 | 22.5 | 0.00 | 0.00 | 0.00 | 65 | 1013.4 |
| 20260901214412 | 23 | 257 | 14.5 | 22.5 | 0.00 | 0.00 | 0.00 | 67 | 1013.8 |
| 20260901213906 | 23 | 255 | 16.1 | 17.7 | 0.00 | 0.00 | 0.00 | 65 | 1013.8 |
| 20260901212346 | 23 | 265 | 8.0 | 22.5 | 0.00 | 0.00 | 0.00 | 68 | 1013.8 |
| 20260901211840 | 23 | 226 | 17.7 | 22.5 | 0.00 | 0.00 | 0.00 | 65 | 1013.8 |
| 20260901211334 | 23 | 308 | 8.0 | 22.5 | 0.00 | 0.00 | 0.00 | 67 | 1013.8 |
| 20260901210826 | 23 | 244 | 9.7 | 22.5 | 0.00 | 0.00 | 0.00 | 68 | 1013.8 |
| 20260901210320 | 23 | 268 | 12.9 | 20.9 | 0.00 | 0.00 | 0.00 | 66 | 1013.8 |
| 20260901205814 | 23 | 244 | 11.3 | 22.5 | 0.00 | 0.00 | 0.00 | 65 | 1013.8 |
| 20260901204801 | 23 | 284 | 9.7 | 17.7 | 0.00 | 0.00 | 0.00 | 66 | 1014.1 |
| 20260901204254 | 23 | 238 | 11.3 | 17.7 | 0.00 | 0.00 | 0.00 | 65 | 1014.1 |
| 20260901203241 | 23 | 271 | 9.7 | 20.9 | 0.00 | 0.00 | 0.00 | 68 | 1014.1 |
| 20260901202734 | 23 | 241 | 9.7 | 20.9 | 0.00 | 0.00 | 0.00 | 67 | 1014.1 |
| 20260901202228 | 23 | 266 | 8.0 | 16.1 | 0.00 | 0.00 | 0.00 | 67 | 1014.5 |
| 20260901201722 | 23 | 210 | 11.3 | 22.5 | 0.00 | 0.00 | 0.00 | 68 | 1014.5 |
| 20260901200708 | 23 | 256 | 8.0 | 16.1 | 0.00 | 0.00 | 0.00 | 69 | 1014.5 |
| 20260901200202 | 22 | 181 | 9.7 | 17.7 | 0.00 | 0.00 | 0.00 | 70 | 1014.5 |
| 20260901195655 | 23 | 236 | 9.7 | 17.7 | 0.00 | 0.00 | 0.00 | 69 | 1014.5 |
| 20260901195149 | 23 | 178 | 9.7 | 22.5 | 0.00 | 0.00 | 0.00 | 69 | 1014.5 |
| 20260901194136 | 23 | 259 | 14.5 | 16.1 | 0.00 | 0.00 | 0.00 | 68 | 1014.5 |
| 20260901193629 | 23 | 320 | 9.7 | 16.1 | 0.00 | 0.00 | 0.00 | 68 | 1014.8 |
| 20260901193123 | 23 | 248 | 8.0 | 17.7 | 0.00 | 0.00 | 0.00 | 68 | 1014.8 |
| 20260901192616 | 23 | 279 | 12.9 | 17.7 | 0.00 | 0.00 | 0.00 | 69 | 1014.8 |
| 20260901192110 | 22 | 211 | 6.4 | 17.7 | 0.00 | 0.00 | 0.00 | 70 | 1014.8 |
| 20260901191057 | 22 | 251 | 11.3 | 17.7 | 0.00 | 0.00 | 0.00 | 70 | 1014.8 |
| 20260901190044 | 23 | 252 | 11.3 | 16.1 | 0.00 | 0.00 | 0.00 | 69 | 1014.8 |
| 20260901185031 | 23 | 224 | 6.4 | 17.7 | 0.00 | 0.00 | 0.00 | 69 | 1014.8 |
| 20260901184524 | 23 | 192 | 9.7 | 17.7 | 0.00 | 0.00 | 0.00 | 69 | 1014.8 |
| 20260901184017 | 23 | 171 | 6.4 | 14.5 | 0.00 | 0.00 | 0.00 | 69 | 1014.8 |
| 20260901183511 | 22 | 256 | 8.0 | 16.1 | 0.00 | 0.00 | 0.00 | 69 | 1014.8 |
| 20260901183005 | 23 | 230 | 12.9 | 16.1 | 0.00 | 0.00 | 0.00 | 69 | 1014.8 |
| 20260901182459 | 23 | 249 | 8.0 | 16.1 | 0.00 | 0.00 | 0.00 | 68 | 1014.8 |
| 20260901181951 | 22 | 227 | 3.2 | 16.1 | 0.00 | 0.00 | 0.00 | 70 | 1014.8 |
| 20260901181445 | 22 | 199 | 6.4 | 12.9 | 0.00 | 0.00 | 0.00 | 70 | 1014.8 |
| 20260901180432 | 22 | 229 | 3.2 | 16.1 | 0.00 | 0.00 | 0.00 | 72 | 1014.8 |
| 20260901175926 | 22 | 253 | 8.0 | 16.1 | 0.00 | 0.00 | 0.00 | 71 | 1014.8 |
| 20260901175419 | 22 | 235 | 4.8 | 12.9 | 0.00 | 0.00 | 0.00 | 71 | 1014.8 |
| 20260901174913 | 22 | 178 | 11.3 | 12.9 | 0.00 | 0.00 | 0.00 | 70 | 1014.8 |
| 20260901174406 | 22 | 162 | 3.2 | 12.9 | 0.00 | 0.00 | 0.00 | 72 | 1014.8 |
| 20260901173859 | 22 | 220 | 9.7 | 12.9 | 0.00 | 0.00 | 0.00 | 70 | 1014.8 |
| 20260901173353 | 22 | 270 | 4.8 | 12.9 | 0.00 | 0.00 | 0.00 | 72 | 1014.8 |
| 20260901172847 | 22 | 214 | 1.6 | 12.9 | 0.00 | 0.00 | 0.00 | 74 | 1014.8 |
| 20260901172340 | 21 | 241 | 3.2 | 14.5 | 0.00 | 0.00 | 0.00 | 73 | 1014.8 |
| 20260901171834 | 22 | 218 | 11.3 | 14.5 | 0.00 | 0.00 | 0.00 | 71 | 1014.8 |
| 20260901165808 | 22 | 111 | 3.2 | 9.7 | 0.00 | 0.00 | 0.00 | 68 | 1014.5 |
| 20260901165301 | 22 | 133 | 3.2 | 6.4 | 0.00 | 0.00 | 0.00 | 69 | 1014.8 |
| 20260901164754 | 22 | 153 | 1.6 | 9.7 | 0.00 | 0.00 | 0.00 | 71 | 1014.8 |
| 20260901164248 | 21 | 62 | 6.4 | 9.7 | 0.00 | 0.00 | 0.00 | 72 | 1014.5 |
| 20260901162223 | 21 | 183 | 4.8 | 9.7 | 0.00 | 0.00 | 0.00 | 75 | 1014.5 |
| 20260901161715 | 20 | 208 | 3.2 | 9.7 | 0.00 | 0.00 | 0.00 | 76 | 1014.5 |
| 20260901161209 | 20 | 190 | 4.8 | 9.7 | 0.00 | 0.00 | 0.00 | 77 | 1014.8 |
| 20260901160704 | 20 | 290 | 0.0 | 4.8 | 0.00 | 0.00 | 0.00 | 77 | 1014.8 |
| 20260901160156 | 20 | 297 | 1.6 | 4.8 | 0.00 | 0.00 | 0.00 | 79 | 1014.5 |
| 20260901155650 | 20 | 264 | 3.2 | 4.8 | 0.00 | 0.00 | 0.00 | 79 | 1014.8 |
| 20260901155144 | 20 | 283 | 3.2 | 6.4 | 0.00 | 0.00 | 0.00 | 80 | 1014.8 |
| 20260901154637 | 20 | 279 | 0.0 | 6.4 | 0.00 | 0.00 | 0.00 | 81 | 1014.5 |
| 20260901153624 | 19 | 276 | 3.2 | 4.8 | 0.00 | 0.00 | 0.00 | 81 | 1014.8 |
| 20260901153117 | 19 | 269 | 3.2 | 4.8 | 0.00 | 0.00 | 0.00 | 81 | 1014.5 |
| 20260901152104 | 19 | 300 | 1.6 | 4.8 | 0.00 | 0.00 | 0.00 | 81 | 1014.5 |
| 20260901151558 | 19 | 264 | 0.0 | 1.6 | 0.00 | 0.00 | 0.00 | 81 | 1014.1 |
| 20260901151052 | 19 | 319 | 0.0 | 1.6 | 0.00 | 0.00 | 0.00 | 82 | 1014.5 |
| 20260901150038 | 19 | 319 | 0.0 | 1.6 | 0.00 | 0.00 | 0.00 | 83 | 1014.1 |
| 20260901145532 | 18 | 319 | 0.0 | 3.2 | 0.00 | 0.00 | 0.00 | 84 | 1014.1 |
| 20260901145025 | 18 | 296 | 1.6 | 3.2 | 0.00 | 0.00 | 0.00 | 84 | 1014.1 |
| 20260901144518 | 18 | 310 | 1.6 | 3.2 | 0.00 | 0.00 | 0.00 | 85 | 1014.1 |
| 20260901144012 | 17 | 312 | 3.2 | 3.2 | 0.00 | 0.00 | 0.00 | 85 | 1013.8 |
| 20260901143506 | 17 | 322 | 1.6 | 3.2 | 0.00 | 0.00 | 0.00 | 86 | 1013.8 |
| 20260901142959 | 17 | 325 | 1.6 | 3.2 | 0.00 | 0.00 | 0.00 | 86 | 1013.8 |
| 20260901142453 | 17 | 328 | 1.6 | 3.2 | 0.00 | 0.00 | 0.00 | 86 | 1013.8 |
| 20260901141946 | 17 | 341 | 1.6 | 3.2 | 0.00 | 0.00 | 0.00 | 87 | 1013.4 |
| 20260901141439 | 17 | 332 | 0.0 | 3.2 | 0.00 | 0.00 | 0.00 | 87 | 1013.4 |
| 20260901140933 | 17 | 336 | 0.0 | 3.2 | 0.00 | 0.00 | 0.00 | 88 | 1013.4 |
| 20260901135920 | 16 | 355 | 3.2 | 4.8 | 0.00 | 0.00 | 0.00 | 89 | 1013.4 |
| 20260901135414 | 16 | 15 | 3.2 | 4.8 | 0.00 | 0.00 | 0.00 | 90 | 1013.4 |
| 20260901134907 | 16 | 351 | 1.6 | 3.2 | 0.00 | 0.00 | 0.00 | 90 | 1013.4 |
| 20260901134401 | 16 | 345 | 3.2 | 3.2 | 0.00 | 0.00 | 0.00 | 90 | 1013.4 |
| 20260901133854 | 16 | 323 | 0.0 | 3.2 | 0.00 | 0.00 | 0.00 | 90 | 1013.4 |
| 20260901133347 | 16 | 333 | 1.6 | 3.2 | 0.00 | 0.00 | 0.00 | 90 | 1013.4 |
| 20260901132841 | 16 | 312 | 1.6 | 4.8 | 0.00 | 0.00 | 0.00 | 90 | 1013.4 |
| 20260901132335 | 16 | 331 | 3.2 | 4.8 | 0.00 | 0.00 | 0.00 | 90 | 1013.4 |
| 20260901131828 | 16 | 342 | 1.6 | 4.8 | 0.00 | 0.00 | 0.00 | 90 | 1013.4 |
| 20260901131322 | 16 | 328 | 3.2 | 4.8 | 0.00 | 0.00 | 0.00 | 90 | 1013.4 |
| 20260901130815 | 16 | 334 | 1.6 | 4.8 | 0.00 | 0.00 | 0.00 | 90 | 1013.1 |
| 20260901130308 | 16 | 323 | 1.6 | 4.8 | 0.00 | 0.00 | 0.00 | 90 | 1013.1 |
| 20260901125802 | 16 | 326 | 3.2 | 4.8 | 0.00 | 0.00 | 0.00 | 90 | 1013.1 |
| 20260901124750 | 16 | 315 | 1.6 | 1.6 | 0.00 | 0.00 | 0.00 | 90 | 1013.1 |
| 20260901124242 | 16 | 307 | 0.0 | 1.6 | 0.00 | 0.00 | 0.00 | 90 | 1013.1 |
| 20260901123230 | 16 | 328 | 1.6 | 3.2 | 0.00 | 0.00 | 0.00 | 90 | 1013.1 |
| 20260901122723 | 16 | 321 | 0.0 | 3.2 | 0.00 | 0.00 | 0.00 | 90 | 1013.1 |
| 20260901122217 | 16 | 317 | 0.0 | 3.2 | 0.00 | 0.00 | 0.00 | 90 | 1013.1 |
| 20260901121710 | 16 | 328 | 1.6 | 3.2 | 0.00 | 0.00 | 0.00 | 90 | 1013.4 |
| 20260901121203 | 16 | 340 | 1.6 | 4.8 | 0.00 | 0.00 | 0.00 | 90 | 1013.1 |
| 20260901120657 | 16 | 342 | 3.2 | 4.8 | 0.00 | 0.00 | 0.00 | 90 | 1013.1 |
| 20260901120151 | 16 | 328 | 1.6 | 4.8 | 0.00 | 0.00 | 0.00 | 89 | 1013.1 |
| 20260901115647 | 16 | 332 | 3.2 | 3.2 | 0.00 | 0.00 | 0.00 | 89 | 1013.1 |
| 20260901115138 | 16 | 345 | 3.2 | 4.8 | 0.00 | 0.00 | 0.00 | 89 | 1013.1 |
| 20260901114632 | 16 | 323 | 1.6 | 4.8 | 0.00 | 0.00 | 0.00 | 89 | 1013.1 |
| 20260901114125 | 16 | 328 | 3.2 | 4.8 | 0.00 | 0.00 | 0.00 | 89 | 1013.1 |
| 20260901113618 | 16 | 328 | 3.2 | 4.8 | 0.00 | 0.00 | 0.00 | 89 | 1013.1 |
| 20260901113112 | 16 | 333 | 0.0 | 1.6 | 0.00 | 0.00 | 0.00 | 89 | 1013.1 |
| 20260901112607 | 16 | 333 | 1.6 | 1.6 | 0.00 | 0.00 | 0.00 | 89 | 1013.1 |
| 20260901112059 | 16 | 331 | 1.6 | 3.2 | 0.00 | 0.00 | 0.00 | 89 | 1013.1 |
| 20260901111553 | 16 | 332 | 0.0 | 3.2 | 0.00 | 0.00 | 0.00 | 89 | 1013.1 |
| 20260901111046 | 16 | 332 | 0.0 | 1.6 | 0.00 | 0.00 | 0.00 | 89 | 1013.1 |
| 20260901110033 | 16 | 329 | 1.6 | 3.2 | 0.00 | 0.00 | 0.00 | 89 | 1013.1 |
| 20260901105021 | 16 | 341 | 1.6 | 3.2 | 0.00 | 0.00 | 0.00 | 89 | 1013.1 |
| 20260901104513 | 16 | 339 | 1.6 | 3.2 | 0.00 | 0.00 | 0.00 | 89 | 1013.1 |
| 20260901104007 | 16 | 334 | 1.6 | 3.2 | 0.00 | 0.00 | 0.00 | 89 | 1013.1 |
| 20260901102954 | 16 | 327 | 1.6 | 1.6 | 0.00 | 0.00 | 0.00 | 89 | 1013.1 |
| 20260901102447 | 16 | 317 | 0.0 | 1.6 | 0.00 | 0.00 | 0.00 | 89 | 1013.1 |
| 20260901101941 | 16 | 307 | 0.0 | 1.6 | 0.00 | 0.00 | 0.00 | 89 | 1013.1 |
| 20260901100928 | 16 | 324 | 0.0 | 3.2 | 0.00 | 0.00 | 0.00 | 89 | 1013.1 |
| 20260901100421 | 16 | 329 | 1.6 | 4.8 | 0.00 | 0.00 | 0.00 | 89 | 1013.1 |
| 20260901095409 | 16 | 343 | 3.2 | 6.4 | 0.00 | 0.00 | 0.00 | 88 | 1013.4 |
| 20260901094903 | 16 | 332 | 3.2 | 4.8 | 0.00 | 0.00 | 0.00 | 88 | 1013.4 |
| 20260901094355 | 16 | 321 | 3.2 | 4.8 | 0.00 | 0.00 | 0.00 | 88 | 1013.4 |
| 20260901093849 | 16 | 316 | 3.2 | 4.8 | 0.00 | 0.00 | 0.00 | 88 | 1013.4 |
| 20260901093343 | 16 | 317 | 3.2 | 4.8 | 0.00 | 0.00 | 0.00 | 88 | 1013.4 |
| 20260901092836 | 17 | 344 | 3.2 | 4.8 | 0.00 | 0.00 | 0.00 | 88 | 1013.1 |
| 20260901091823 | 16 | 306 | 0.0 | 3.2 | 0.00 | 0.00 | 0.00 | 88 | 1013.1 |
| 20260901091316 | 16 | 337 | 0.0 | 3.2 | 0.00 | 0.00 | 0.00 | 88 | 1013.4 |
| 20260901090810 | 16 | 318 | 0.0 | 3.2 | 0.00 | 0.00 | 0.00 | 87 | 1013.4 |
| 20260901090304 | 17 | 324 | 0.0 | 1.6 | 0.00 | 0.00 | 0.00 | 87 | 1013.4 |
| 20260901085758 | 17 | 310 | 0.0 | 1.6 | 0.00 | 0.00 | 0.00 | 87 | 1013.4 |
| 20260901085250 | 17 | 319 | 1.6 | 1.6 | 0.00 | 0.00 | 0.00 | 88 | 1013.4 |
| 20260901084744 | 17 | 320 | 1.6 | 1.6 | 0.00 | 0.00 | 0.00 | 87 | 1013.4 |
| 20260901084238 | 17 | 306 | 0.0 | 3.2 | 0.00 | 0.00 | 0.00 | 87 | 1013.4 |
| 20260901082718 | 17 | 327 | 1.6 | 4.8 | 0.00 | 0.00 | 0.00 | 87 | 1013.4 |
| 20260901082211 | 17 | 328 | 3.2 | 4.8 | 0.00 | 0.00 | 0.00 | 87 | 1013.4 |
| 20260901081705 | 17 | 306 | 1.6 | 4.8 | 0.00 | 0.00 | 0.00 | 87 | 1013.4 |
| 20260901081159 | 17 | 318 | 3.2 | 3.2 | 0.00 | 0.00 | 0.00 | 86 | 1013.4 |
| 20260901080652 | 17 | 332 | 1.6 | 4.8 | 0.00 | 0.00 | 0.00 | 87 | 1013.4 |
| 20260901080145 | 17 | 312 | 1.6 | 4.8 | 0.00 | 0.00 | 0.00 | 86 | 1013.4 |
| 20260901075639 | 17 | 320 | 1.6 | 3.2 | 0.00 | 0.00 | 0.00 | 86 | 1013.4 |
| 20260901075133 | 17 | 328 | 1.6 | 3.2 | 0.00 | 0.00 | 0.00 | 86 | 1013.4 |
| 20260901074120 | 17 | 319 | 1.6 | 3.2 | 0.00 | 0.00 | 0.00 | 86 | 1013.4 |
| 20260901073614 | 17 | 322 | 0.0 | 3.2 | 0.00 | 0.00 | 0.00 | 86 | 1013.4 |
| 20260901073107 | 17 | 343 | 0.0 | 3.2 | 0.00 | 0.00 | 0.00 | 86 | 1013.4 |
| 20260901072601 | 17 | 327 | 1.6 | 3.2 | 0.00 | 0.00 | 0.00 | 86 | 1013.4 |
| 20260901072054 | 17 | 322 | 1.6 | 3.2 | 0.00 | 0.00 | 0.00 | 86 | 1013.4 |
| 20260901071547 | 17 | 323 | 0.0 | 1.6 | 0.00 | 0.00 | 0.00 | 86 | 1013.4 |
| 20260901071041 | 17 | 322 | 1.6 | 3.2 | 0.00 | 0.00 | 0.00 | 86 | 1013.4 |
| 20260901070535 | 17 | 323 | 0.0 | 3.2 | 0.00 | 0.00 | 0.00 | 85 | 1013.4 |
| 20260901070029 | 17 | 322 | 1.6 | 1.6 | 0.00 | 0.00 | 0.00 | 85 | 1013.4 |
| 20260901065521 | 17 | 325 | 0.0 | 3.2 | 0.00 | 0.00 | 0.00 | 85 | 1013.1 |
| 20260901065015 | 17 | 319 | 1.6 | 3.2 | 0.00 | 0.00 | 0.00 | 85 | 1013.1 |
| 20260901064510 | 17 | 319 | 0.0 | 1.6 | 0.00 | 0.00 | 0.00 | 85 | 1013.1 |
| 20260901064002 | 17 | 315 | 1.6 | 1.6 | 0.00 | 0.00 | 0.00 | 85 | 1013.1 |
| 20260901063456 | 17 | 314 | 0.0 | 1.6 | 0.00 | 0.00 | 0.00 | 85 | 1013.1 |
| 20260901062949 | 17 | 317 | 1.6 | 3.2 | 0.00 | 0.00 | 0.00 | 85 | 1012.8 |
| 20260901061936 | 17 | 321 | 1.6 | 3.2 | 0.00 | 0.00 | 0.00 | 84 | 1012.8 |
| 20260901061430 | 18 | 306 | 0.0 | 4.8 | 0.00 | 0.00 | 0.00 | 84 | 1012.8 |
| 20260901060416 | 18 | 316 | 3.2 | 3.2 | 0.00 | 0.00 | 0.00 | 84 | 1012.8 |
| 20260901055910 | 18 | 319 | 1.6 | 3.2 | 0.00 | 0.00 | 0.00 | 84 | 1012.8 |
| 20260901055404 | 18 | 319 | 0.0 | 1.6 | 0.00 | 0.00 | 0.00 | 84 | 1012.8 |
| 20260901054857 | 18 | 318 | 0.0 | 1.6 | 0.00 | 0.00 | 0.00 | 84 | 1012.8 |
| 20260901054355 | 18 | 318 | 0.0 | 3.2 | 0.00 | 0.00 | 0.00 | 84 | 1012.8 |
| 20260901052831 | 18 | 322 | 1.6 | 3.2 | 0.00 | 0.00 | 0.00 | 84 | 1012.8 |
| 20260901052325 | 18 | 317 | 1.6 | 3.2 | 0.00 | 0.00 | 0.00 | 83 | 1012.8 |
| 20260901051818 | 18 | 316 | 1.6 | 3.2 | 0.00 | 0.00 | 0.00 | 83 | 1012.8 |
| 20260901051312 | 18 | 314 | 1.6 | 3.2 | 0.00 | 0.00 | 0.00 | 83 | 1012.8 |
| 20260901050259 | 18 | 333 | 3.2 | 3.2 | 0.00 | 0.00 | 0.00 | 83 | 1012.8 |
| 20260901045246 | 18 | 322 | 1.6 | 3.2 | 0.00 | 0.00 | 0.00 | 83 | 1012.8 |
| 20260901044233 | 19 | 292 | 1.6 | 3.2 | 0.00 | 0.00 | 0.00 | 84 | 1012.4 |
| 20260901043727 | 19 | 274 | 1.6 | 3.2 | 0.00 | 0.00 | 0.00 | 84 | 1012.8 |
| 20260901043219 | 19 | 255 | 1.6 | 3.2 | 0.00 | 0.00 | 0.00 | 84 | 1012.4 |
| 20260901042713 | 19 | 240 | 1.6 | 3.2 | 0.00 | 0.00 | 0.00 | 84 | 1012.4 |
| 20260901041700 | 19 | 243 | 1.6 | 1.6 | 0.00 | 0.00 | 0.00 | 84 | 1012.4 |
| 20260901041154 | 19 | 243 | 1.6 | 1.6 | 0.00 | 0.00 | 0.00 | 85 | 1012.1 |
| 20260901040140 | 19 | 244 | 0.0 | 3.2 | 0.00 | 0.00 | 0.00 | 84 | 1011.8 |
| 20260901035634 | 19 | 246 | 1.6 | 3.2 | 0.00 | 0.00 | 0.00 | 84 | 1012.1 |
| 20260901034622 | 19 | 256 | 1.6 | 3.2 | 0.00 | 0.00 | 0.00 | 84 | 1011.8 |
| 20260901033608 | 19 | 287 | 0.0 | 1.6 | 0.00 | 0.00 | 0.00 | 84 | 1011.8 |
| 20260901033102 | 19 | 246 | 0.0 | 3.2 | 0.00 | 0.00 | 0.00 | 84 | 1011.8 |
| 20260901032555 | 19 | 253 | 0.0 | 4.8 | 0.00 | 0.00 | 0.00 | 84 | 1011.8 |
| 20260901032049 | 19 | 251 | 3.2 | 4.8 | 0.00 | 0.00 | 0.00 | 84 | 1011.4 |
| 20260901031542 | 19 | 246 | 1.6 | 4.8 | 0.00 | 0.00 | 0.00 | 83 | 1011.4 |
| 20260901031035 | 19 | 254 | 0.0 | 3.2 | 0.00 | 0.00 | 0.00 | 83 | 1011.4 |
| 20260901030529 | 20 | 257 | 1.6 | 6.4 | 0.00 | 0.00 | 0.00 | 83 | 1011.4 |
| 20260901025010 | 20 | 228 | 6.4 | 12.9 | 0.00 | 0.00 | 0.00 | 83 | 1011.4 |
| 20260901024504 | 20 | 233 | 4.8 | 12.9 | 0.00 | 0.00 | 0.00 | 83 | 1011.4 |
| 20260901023957 | 20 | 260 | 4.8 | 12.9 | 0.00 | 0.00 | 0.00 | 83 | 1011.1 |
| 20260901022437 | 20 | 236 | 6.4 | 12.9 | 0.00 | 0.00 | 0.00 | 82 | 1011.4 |